Location: *
(50.3194°N, 7.1067°E)
Time: 10:55:02
(UTC+00:00)

Okean 1 Rocket - Pass Details

Date: 22 September 2019
Orbit: 608 x 634 km, 82.5° (Epoch: 15 October)

Event Time Altitude Azimuth Distance (km) Brightness Sun altitude
Rises 18:29:57 0° 192° (SSW) 2,858 6.5 -10.2°
Reaches altitude 10° 18:32:09 10° 194° (SSW) 1,961 5.7 -10.6°
Maximum altitude 18:36:29 77° 281° (W) 636 3.2 -11.2°
Drops below altitude 10° 18:40:54 10° 8° (N) 1,990 5.8 -11.9°
Sets 18:43:09 0° 10° (N) 2,905 6.6 -12.3°
